Regional Weather Roundup
Issued by NWS

Home | Current Version | Previous Version | Text Only | Print | Product List | Glossary Off
Versions: 1 2 3 4 5 6 7 8 9 10 11 12 13 14 15 16 17 18 19 20 21 22 23 24 25 26 27 28 29 30 31 32 33 34 35 36 37 38 39 40 41 42 43 44 45 46 47 48 49 50

000
ASUS43 KIND 051509
RWRIN

WEATHER ROUNDUP FOR INDIANA
NATIONAL WEATHER SERVICE INDIANAPOLIS IN
1100 AM EDT TUE MAY 05 2015

NOTE: "FAIR" INDICATES FEW OR NO CLOUDS BELOW 12,000 FEET WITH NO
SIGNIFICANT WEATHER AND/OR OBSTRUCTIONS TO VISIBILITY.

* - STATION DOES NOT REPORT WEATHER SUCH AS PRECIPITATION OR FOG.

+ - STATION NOT QUALITY CONTROLLED BY THE NATIONAL WEATHER SERVICE.
    USE DATA WITH CAUTION...ESPECIALLY DEWPOINT AND RELATIVE
    HUMIDITY OBSERVATIONS.

INZ001>003-010>013-019-020-051600-
NORTHWEST INDIANA

CITY           SKY/WX    TMP DP  RH WIND       PRES   REMARKS
GARY /AIRPORT/ LGT RAIN  50 N/A N/A CALM      30.21S
KNOX *+        CLOUDY    63  59  88 S8        30.20R
LA PORTE +     LGT RAIN N/A N/A N/A W3        30.23R
MICHIGAN CITY+ RAIN      59  57  94 CALM      30.23R
MONTICELLO +   MOSUNNY   67  64  89 E6        30.21S
VALPARAISO     CLOUDY    66  62  87 CALM      30.22R

$$

LMZ046-743>745-051600-
SOUTHERN LAKE MICHIGAN

STATION/POSITION TIME  TEMP    WIND        PRES    WAVE
                       AIR SEA DIR/SP/G            HT
                 (UTC) (F)     (DEG/KT/KT) (MB)    (FT)
BURNS HARBOR     1500   51      60/  6/  7 1024.0R
MICHIGAN CITY    1500   51      10/  6/  6   N/A
5NW MICH CITY    1500   50 49   70/  6/ 10   N/A     2

$$

INZ004-005-014>016-021>024-051600-
NORTH CENTRAL INDIANA

CITY           SKY/WX    TMP DP  RH WIND       PRES   REMARKS
ELKHART        CLOUDY    64  63  94 CALM      30.22S FOG
GOSHEN         CLOUDY    65  62  90 S6        30.22R FOG
LOGANSPORT +   PTSUNNY   68  63  83 E7        30.22F
PERU/GRISSOM   MOSUNNY   69  62  78 SE2       30.22S
ROCHESTER +    PTSUNNY   68  68 100 SE6       30.22F
SOUTH BEND     CLOUDY    61  59  93 NE6       30.22S FOG
WARSAW +       CLOUDY    63  63 100 SE6       30.22F FOG

$$

INZ006>009-017-018-025>027-051600-
NORTHEAST INDIANA

CITY           SKY/WX    TMP DP  RH WIND       PRES   REMARKS
ANGOLA *+      CLOUDY    55  55 100 E9        30.24F
AUBURN +       CLOUDY    61  59  94 SE5       30.25F FOG
FORT WAYNE     CLOUDY    66  62  87 E6        30.25F FOG
HUNTINGTON +   PTSUNNY   67  63  86 E5        30.24F

$$

INZ028-029-035-036-043>045-051>053-051600-
WEST CENTRAL INDIANA

CITY           SKY/WX    TMP DP  RH WIND       PRES   REMARKS
CRAWFORDSVL +  MOSUNNY   71  51  48 SW9       30.22F
GREENCASTLE +  MOSUNNY   72  52  49 SW6       30.24S
LAFAYETTE      MOSUNNY   70  58  65 SW7       30.20F
TERRE HAUTE    SUNNY     75  57  53 SW9       30.23S

$$

INZ030>032-037>040-046>048-054>057-064-065-051600-
CENTRAL INDIANA

CITY           SKY/WX    TMP DP  RH WIND       PRES   REMARKS
ANDERSON       PTSUNNY   72  54  53 S6        30.25R
CP ATTERBURY + MOSUNNY   75  52  43 SW13G18   30.25S
COLUMBUS       SUNNY     73  55  53 SW12      30.25S
FISHERS *+     PTSUNNY   72  59  64 SW7       30.24R
FRANKFORT +    MOSUNNY   70  60  70 S7        30.24S
GREENWOOD *+   MOSUNNY   75  52  43 W8        30.25S
INDIANAPOLIS   PTSUNNY   74  54  49 SW14      30.23S
-EAGLE CREEK   PTSUNNY   73  54  51 SW8       30.23S
KOKOMO *+      MOSUNNY   72  63  73 SW6       30.22F
MARION +       MOSUNNY   69  59  70 SW6       30.24S
MT COMFORT *+  MOSUNNY   73  41  31 SW10      30.25R
SHELBYVILLE    MOSUNNY   76  56  49 SW9       30.24S
ZIONSVILLE +   MOSUNNY   74  55  52 SW7       30.24S

$$

INZ033-034-041-042-049-050-058-059-051600-
EAST CENTRAL INDIANA

CITY           SKY/WX    TMP DP  RH WIND       PRES   REMARKS
MUNCIE         PTSUNNY   71  57  61 W8        30.24S

$$

INZ060-061-067>069-081>083-085>088-051600-
SOUTHWEST INDIANA

CITY           SKY/WX    TMP DP  RH WIND       PRES   REMARKS
EVANSVILLE     SUNNY     77  55  46 SW12      30.26R
HUNTINGBURG *+ SUNNY     75  57  53 SW13      30.26S
WASHINGTON +   SUNNY     76  52  42 SW9       30.24S

$$

INZ062-063-066-070>080-084-089>092-051600-
SOUTH CENTRAL AND SOUTHEAST INDIANA

CITY           SKY/WX    TMP DP  RH WIND       PRES   REMARKS
BEDFORD +      SUNNY     77  54  44 W9G16     30.26S
BLOOMINGTON    MOSUNNY   77  55  46 SW12G17   30.25R
MADISON *+     SUNNY     77  52  41 SW8       30.29S
NORTH VERNON + SUNNY     75  57  53 SW8       30.27S
SEYMOUR +      SUNNY     77  57  50 SW12      30.26S

$$




USA.gov is the U.S. government's official web portal to all federal, state and local government web resources and services.